This demonstration page uses our WeatherBlox Daily Observations layout. Learn more.

38.89511, -77.03637

Hourly Observations for June 7, 2015

Temp ( °F °C ) Dew Point ( °F °C ) Humidity (%) Winds ( mph kmh ) Pressure ( in mb ) Visibility ( mi km ) Precip ( " mm )
12:17 am 00:17 Cloudy 72 22 64 18 78 78 S 8 13 30.09 1019 10 16.09344 0 0
12:52 am 00:52 Cloudy 70 21 63 17 78 78 SSW 8 13 30.09 1019 10 16.09344 0 0
1:52 am 01:52 Cloudy 70 21 63 17 78 78 SSW 8 13 30.09 1019 10 16.09344 0 0
2:52 am 02:52 Cloudy 70 21 63 17 78 78 S 8 13 30.09 1019 10 16.09344 0 0
3:03 am 03:03 Cloudy 70 21 63 17 78 78 S 9 15 30.09 1019 10 16.09344 0 0
3:38 am 03:38 Mostly Cloudy 70 21 63 17 78 78 SE 7 11 30.09 1019 10 16.09344 0 0
3:52 am 03:52 Mostly Cloudy 68 20 63 17 83 83 SSE 6 9 30.09 1019 10 16.09344 0 0
4:52 am 04:52 Cloudy 70 21 61 16 73 73 S 5 7 30.12 1020 10 16.09344 0 0
5:52 am 05:52 Mostly Cloudy 70 21 59 15 69 69 Calm 30.12 1020 10 16.09344 0 0
6:52 am 06:52 Mostly Cloudy 70 21 61 16 73 73 Calm 30.15 1021 10 16.09344 0 0
7:52 am 07:52 Cloudy 70 21 61 16 73 73 Calm 30.15 1021 10 16.09344 0 0
8:52 am 08:52 Mostly Cloudy 72 22 59 15 65 65 SE 7 11 30.15 1021 10 16.09344 0 0
9:52 am 09:52 Mostly Cloudy 73 23 55 13 53 53 S 6 9 30.18 1022 10 16.09344 0 0
10:52 am 10:52 Mostly Cloudy 75 24 57 14 54 54 SSE 10 17 30.18 1022 10 16.09344 0 0
11:52 am 11:52 Mostly Cloudy 75 24 57 14 54 54 S 9 15 30.15 1021 10 16.09344 0 0
12:52 pm 12:52 Cloudy 77 25 59 15 54 54 S 9 15 30.15 1021 10 16.09344 0 0
1:52 pm 13:52 Mostly Cloudy 79 26 61 16 54 54 S 12 19 30.15 1021 10 16.09344 0 0
2:52 pm 14:52 Mostly Cloudy 79 26 61 16 54 54 S 14 22 30.12 1020 10 16.09344 0 0
3:52 pm 15:52 Cloudy 79 26 63 17 58 58 S 12 19 30.12 1020 10 16.09344 0 0
4:52 pm 16:52 Mostly Cloudy 79 26 63 17 58 58 S 15 24 30.12 1020 10 16.09344 0 0
5:52 pm 17:52 Cloudy 77 25 63 17 61 61 S 13 20 30.09 1019 10 16.09344 0 0
6:52 pm 18:52 Mostly Cloudy 77 25 61 16 57 57 SSE 15 24 30.09 1019 10 16.09344 0 0
7:52 pm 19:52 Mostly Cloudy 75 24 61 16 61 61 SSE 10 17 30.09 1019 10 16.09344 0 0
8:52 pm 20:52 Partly Cloudy 73 23 61 16 65 65 SSE 8 13 30.09 1019 10 16.09344 0 0
9:52 pm 21:52 Partly Cloudy 72 22 59 15 65 65 SSE 13 20 30.09 1019 10 16.09344 0 0
10:52 pm 22:52 Mostly Cloudy 70 21 57 14 64 64 S 12 19 30.09 1019 10 16.09344 0 0
11:52 pm 23:52 Mostly Cloudy 70 21 57 14 64 64 S 15 24 30.09 1019 10 16.09344 0 0

Powered by AerisWeather